Regional Weather Roundup
Issued by NWS Boston, MA

Current Version | Previous Version | Graphics & Text | Print | Product List | Glossary On
Versions: 1 2 3 4 5 6 7 8 9 10 11 12 13 14 15 16 17 18 19 20 21 22 23 24 25 26 27 28 29 30 31 32 33 34 35 36 37 38 39 40 41 42 43 44 45 46 47 48 49 50
000 ASUS41 KBOX 211410 RWRBOX REGIONAL WEATHER ROUNDUP NATIONAL WEATHER SERVICE TAUNTON MA 1000 AM EDT FRI JUL 21 2017 NOTE: "FAIR" INDICATES FEW OR NO CLOUDS BELOW 12,000 FEET WITH NO SIGNIFICANT WEATHER AND/OR OBSTRUCTIONS TO VISIBILITY. MAZALL-211500- EASTERN MASSACHUSETTS CITY SKY/WX TMP DP RH WIND PRES REMARKS BOSTON MOSUNNY 82 59 45 NW10 29.86R BEVERLY SUNNY 80 63 55 NW8 29.86R LAWRENCE SUNNY 81 63 54 NW6 29.89R BEDFORD SUNNY 80 59 48 NW8 29.86R BLUE HILL N/A 80 61 52 VRB6 29.88S NORWOOD SUNNY 82 63 52 VRB6 29.86S MARSHFIELD SUNNY 82 63 51 VRB5 29.85R PLYMOUTH SUNNY 81 61 50 VRB7 29.87R TAUNTON SUNNY 81 61 50 VRB3 29.86S NEW BEDFORD SUNNY 82 63 52 VRB3 29.86R $$ MAZALL-211500- CAPE COD AND THE ISLANDS CITY SKY/WX TMP DP RH WIND PRES REMARKS FALMOUTH SUNNY 81 64 57 W9 29.87S HYANNIS SUNNY 82 63 52 NW8 29.85R CHATHAM MOSUNNY 81 64 56 VRB7 29.86R PROVINCETOWN MOSUNNY 76 65 68 W8 29.87R NANTUCKET MOSUNNY 80 64 58 W9 29.86R MARTHAS VNYRD SUNNY 82 65 56 W8 29.86R $$ MAZALL-211500- CENTRAL AND WESTERN MASSACHUSETTS CITY SKY/WX TMP DP RH WIND PRES REMARKS WORCESTER SUNNY 76 59 55 W14 29.92R FITCHBURG SUNNY 82 59 45 NW7 29.89S ORANGE SUNNY 78 60 53 W6 29.90F SPRINGFIELD MOSUNNY 79 64 61 W6 29.89S WESTFIELD MOSUNNY 82 66 58 N7 29.89F NORTH ADAMS PTSUNNY 76 64 66 VRB5 29.92F PITTSFIELD CLOUDY 73 64 73 VRB6G16 29.94F $$ RIZALL-211500- RHODE ISLAND CITY SKY/WX TMP DP RH WIND PRES REMARKS PROVIDENCE MOSUNNY 82 66 58 NW9 29.88S NEWPORT SUNNY 81 66 60 NW8 29.88S BLOCK ISLAND MOSUNNY 78 68 71 W8 29.90R WESTERLY SUNNY 83 67 58 VRB7 29.89S $$ CTZALL-211500- CONNECTICUT CITY SKY/WX TMP DP RH WIND PRES REMARKS BRADLEY INTL MOSUNNY 80 67 64 NW8 29.90S HARTFORD PTSUNNY 81 67 62 NW8 29.90S BRIDGEPORT SUNNY 82 69 64 SW8 29.91S DANBURY MOSUNNY 79 68 69 W6 29.94S GROTON SUNNY 84 66 54 NW9 29.88S NEW HAVEN MOSUNNY 81 69 67 VRB5 29.91S CHESTER FAIR 82 66 57 NW8G14 29.92R MERIDEN PTSUNNY 82 67 60 VRB6 29.91S WILLIMANTIC SUNNY 80 67 64 W9 29.91R OXFORD MOSUNNY 77 64 65 N6 29.94S $$ MEZ002-015-021-024-NHZ003-005-008-011-012-014-VTZ005-008-211500- NORTHERN NEW ENGLAND CITY SKY/WX TMP DP RH WIND PRES REMARKS PORTLAND ME MOSUNNY 80 62 54 NW9 29.83S BANGOR ME MOSUNNY 79 64 60 VRB3 29.80S CONCORD NH SUNNY 78 61 55 W8 29.87S MANCHESTER NH MOSUNNY 80 56 43 NW8 29.86S NASHUA NH SUNNY 79 61 53 NW6 29.87F PORTSMOUTH NH MOSUNNY 79 62 55 W7 29.85R JAFFREY NH SUNNY 77 58 51 S5 29.92R KEENE NH SUNNY 74 61 63 CALM 29.91F BURLINGTON VT MOSUNNY 76 60 57 S7 29.87F MT. WASHINGTON FOG 52 52 100 NW18 N/A VSB 1/8 $$ NYZ052-076-211500- EASTERN NEW YORK CITY SKY/WX TMP DP RH WIND PRES REMARKS ALBANY PTSUNNY 76 65 68 CALM 29.92F NEW YORK CITY MOSUNNY 83 69 62 NW9 29.92R $$ ANZALL-211500- MARINE OBSERVATIONS STATION/POSITION TIME TEMP WIND PRES VSBY WAVE AIR SEA DIR/SP/G HT/PER (UTC) (F) (DEG/KT/KT) (MB) (MI) (FT/S) BOSTON BUOY 1250 70 69 260/ 6/ 8 1010.3 1/14 BUZZARDS BAY 1300 76 300/ 12/ 12 1011.7R NANTUCKET SOUND 1350 72 1010.7R 1/ 6 MASS BAY-STELLWA 1304 68 63 260/ 8/ 8 1009.8R 1 ISLE OF SHOALS 1300 71 270/ 7/ 7 1010.2R S OF BLOCK IS 1355 72 N/A 3/ 6 $$ ......................KEY......................... SKY/WX - SKY CONDITION/PRESENT WEATHER TMP - TEMPERATURE IN FAHRENHEIT DWPT - DEWPOINT IN FAHRENHEIT RH - RELATIVE HUMIDITY IN PERCENT WIND - DIRECTION AND SPEED IN MPH PRES - MEAN SEA LEVEL PRESSURE IN INCHES OF HG WCI - WIND CHILL INDEX VSB - VISIBILITY IN MILES HX - HEAT INDEX TC - TEMPERATURE IN CELSIUS VRB - VARIABLE WIND DIRECTION N/A - NOT AVAILABLE

USA.gov is the U.S. government's official web portal to all federal, state and local government web resources and services.